This is the latest recevied weather packets stored in our database for station/object K6LCM-13. If no packets are shown the sender has not sent any weather packets the latest 10 day(s).
| Time | Temp. | Humidity | Pressure | Rain* | Wind** | Luminosity | Snow |
|---|---|---|---|---|---|---|---|
| 1777585523 | 18.89° C | 68% | 1011.3 hPa | 0 mm | - | - | - |
| 1777584984 | 18.33° C | 71% | 1011.4 hPa | 0 mm | - | - | - |
| 1777584443 | 17.78° C | 74% | 1011.5 hPa | 0 mm | - | - | - |
| 1777583363 | 18.33° C | 75% | 1011.8 hPa | 0 mm | - | - | - |
| 1777582824 | 18.33° C | 75% | 1011.9 hPa | 0 mm | - | - | - |
| 1777582284 | 18.89° C | 77% | 1011.9 hPa | 0 mm | - | - | - |
| 1777581743 | 18.33° C | 77% | 1011.9 hPa | 0 mm | - | - | - |
| 1777581203 | 17.78° C | 77% | 1012 hPa | 0 mm | - | - | - |
| 1777580505 | 18.33° C | 73% | 1012.1 hPa | 0 mm | - | - | - |
| 1777579965 | 18.33° C | 74% | 1012 hPa | 0 mm | - | - | - |
| 1777579424 | 17.78° C | 76% | 1012.1 hPa | 0 mm | - | - | - |
| 1777578885 | 17.78° C | 77% | 1012.2 hPa | 0 mm | - | - | - |
| 1777578345 | 17.78° C | 77% | 1012.4 hPa | 0 mm | - | - | - |
| 1777577805 | 17.78° C | 78% | 1012.4 hPa | 0 mm | - | - | - |
| 1777577265 | 17.78° C | 77% | 1012.5 hPa | 0 mm | - | - | - |
| 1777576725 | 18.33° C | 76% | 1012.7 hPa | 0 mm | - | - | - |
| 1777576185 | 18.33° C | 75% | 1012.7 hPa | 0 mm | - | - | - |
| 1777575645 | 19.44° C | 73% | 1012.7 hPa | 0 mm | - | - | - |
| 1777575105 | 19.44° C | 71% | 1012.9 hPa | 0 mm | - | - | - |
| 1777574565 | 19.44° C | 73% | 1013 hPa | 0 mm | - | - | - |
| 1777574060 | 19.44° C | 73% | 1013 hPa | 0 mm | - | - | - |
| 1777574024 | 19.44° C | 73% | 1013 hPa | 0 mm | - | - | - |
| 1777573484 | 18.89° C | 75% | 1013.2 hPa | 0 mm | - | - | - |
| 1777572945 | 18.33° C | 75% | 1013.1 hPa | 0 mm | - | - | - |
| 1777572405 | 18.33° C | 78% | 1013.1 hPa | 0 mm | - | - | - |
* Rain latest hour (hover to see other rain measurements)
** Current wind speed in m/s (hover to see current wind gust speed)